www.pogodaiklimat.ru

Погода и климат >> Архив погоды >> Иран >> Сафиабад


ПОГОДА в Сафиабаде

  • Прогноз погоды в Сафиабаде
  • Монитор погоды в Сафиабаде

АРХИВ ПОГОДЫ в Сафиабаде

Время (UTC), дата Ветер
(напр.,м/с)
 
Видим.   Явления Облачность Т
(С)
Тd
(С)
f
(%)
Тe
(С)
Тes
(С)
Комфортность P
(гПа)
Po
(гПа)
Тmin
(С)
Tmax
(С)
R
(мм)
R24
(мм)
S
(см)
09 16.07 штиль 0 10 км 3/0
[Ci fib]
+45.3 +5.1 9 +42 +70 опасность
перегрева
993.7 984.7
12 16.07 Ю 1 10 км 1/0
[Ci fib]
+47.7 +0.6 6 +44 +57 опасность
перегрева
992.2 983.3
15 16.07 З 6 7000 м пыльный позёмок ясно +42.6 +4.2 10 +40 +40 очень
жарко
992.5 983.5 +48.3
18 16.07 З 3 8000 м пыльный позёмок 4/0
[Ac trans]
+34.6 +6.2 17 +32 +32 жарко 994.3 985.2
21 16.07 СЗ 4 10 км 6/0
[Ac trans]
+32.2 +8.4 23 +31 +31 жарко 994.4 985.5
00 17.07 В 1 10 км 6/0
[Ac trans]
+29.1 +9.3 29 +29 +29 жарко 994.4 985.5
03 17.07 С 3 10 км 4/0
[Ac trans]
+26.4 +10.3 36 +27 +28 жарко 995.3 986.2 +25.1
06 17.07 штиль 0 10 км 3/0
[Ac trans]
+34.2 +12.6 27 +34 +49 очень
жарко
996.5 987.4
09 17.07 штиль 0 10 км 5/0
[Ac trans]
+41.1 +7.9 14 +39 +59 опасность
солнечного
удара
996.2 987.2
12 17.07 штиль 0 10 км 6/0
[Ac trans Ci sp]
+44.7 +6.2 10 +42 +53 опасность
перегрева
994.6 985.6
15 17.07 В 1 10 км 4/0
[Ac trans]
+42.8 +6.6 11 +40 +41 очень
жарко
994.8 985.7 +46.0
18 17.07 В 1 10 км 4/0
[Ac trans]
+33.5 +10.2 24 +33 +33 жарко 995.9 986.8
21 17.07 В 1 10 км 3/3 1200 м
[Sc]
+29.5 +13.7 38 +31 +31 жарко 996.2 987.2
00 18.07 штиль 0 10 км 3/3 1200 м
[Sc]
+27.0 +16.5 53 +31 +31 душно 995.9 986.9
03 18.07 штиль 0 10 км 6/4 1200 м
[Sc Ac trans]
+27.5 +16.4 51 +31 +32 душно 996.7 987.7 +26.4
06 18.07 штиль 0 10 км ясно +37.7 +13.6 24 +38 +56 опасность
солнечного
удара
996.6 987.6
09 18.07 штиль 0 10 км ясно +44.1 +10.0 13 +42 +71 опасность
перегрева
995.7 986.7
12 18.07 ЮЗ 2 10 км ясно +47.3 +4.5 8 +44 +56 опасность
перегрева
993.8 984.9
15 18.07 ЮЗ 4 10 км ясно +41.2 +19.5 29 +46 +46 опасность
перегрева
993.2 984.1 +48.1
18 18.07 В 1 10 км ясно +36.3 +15.4 29 +38 +38 очень
душно
995.0 986.0
21 18.07 штиль 0 10 км ясно +31.4 +16.6 41 +35 +35 очень
душно
995.2 986.3
00 19.07 штиль 0 10 км ясно +28.8 +14.5 42 +31 +31 жарко 995.3 986.3
03 19.07 штиль 0 10 км ясно +28.0 +17.7 54 +32 +34 душно 996.7 987.7 +26.9
06 19.07 СВ 1 10 км ясно +37.2 +18.7 34 +41 +57 опасность
перегрева
996.3 987.3
09 19.07 штиль 0 10 км ясно +43.0 +11.5 16 +42 +71 опасность
перегрева
996.2 987.2
12 19.07 Ю 3 10 км ясно +46.4 +8.6 11 +45 +54 опасность
перегрева
994.2 985.2
15 19.07 Ю 4 10 км 3/0
[Ac trans]
+44.5 +3.7 9 +41 +42 опасность
перегрева
993.7 984.7 +47.6
18 19.07 З 2 10 км 6/0
[Ac trans]
+35.7 +7.3 17 +33 +33 жарко 995.7 986.7
21 19.07 штиль 0 10 км 8/0
[Ac und]
+31.4 +13.1 33 +32 +32 жарко 996.0 987.0
00 20.07 штиль 0 10 км 9/0
[Ac und]
+29.4 +16.0 44 +32 +32 душно 996.3 987.3
03 20.07 штиль 0 10 км ясно +27.4 +15.1 47 +30 +32 жарко 998.0 989.0 +25.4
06 20.07 С 2 10 км ясно +35.4 +13.9 28 +36 +50 очень
жарко
999.0 990.0
09 20.07 С 1 10 км ясно +40.3 +15.3 23 +41 +66 опасность
перегрева
998.7 989.6
12 20.07 штиль 0 10 км ясно +45.5 +11.8 14 +45 +60 опасность
перегрева
996.8 987.8
15 20.07 штиль 0 10 км ясно +43.9 +13.4 17 +44 +44 опасность
перегрева
996.0 986.9 +46.3
18 20.07 штиль 0 10 км ясно +33.0 +18.5 42 +38 +38 очень
душно
997.7 988.6
21 20.07 штиль 0 10 км ясно +30.7 +14.5 37 +33 +33 душно 998.4 989.3
00 21.07 штиль 0 10 км ясно +26.4 +17.2 57 +30 +30 душно 998.1 989.0
03 21.07 штиль 0 10 км ясно +26.4 +16.9 56 +30 +32 душно 999.1 990.1 +25.1
06 21.07 штиль 0 10 км ясно +36.6 +17.6 33 +40 +58 опасность
солнечного
удара
999.2 990.2
09 21.07 Ю 2 10 км ясно +44.8 +13.1 16 +45 +66 опасность
перегрева
997.6 988.6
12 21.07 ЮЗ 5 10 км ясно +49.0 +5.3 8 +46 +52 опасность
перегрева
995.4 986.4
15 21.07 З 3 10 км ясно +45.2 +10.7 13 +44 +44 опасность
перегрева
995.0 986.0 +49.0
18 21.07 З 2 8000 м мгла 6/0
[Ac trans]
+37.6 +10.4 19 +36 +36 очень
жарко
996.2 987.2
21 21.07 штиль 0 8000 м мгла 8/0
[Ac trans]
+31.4 +17.5 43 +35 +35 очень
душно
996.8 987.8
00 22.07 штиль 0 8000 м мгла 1/0
[Ac trans]
+29.0 +17.8 51 +33 +33 очень
душно
996.4 987.4
03 22.07 штиль 0 8000 м мгла 6/0
[Ac trans]
+28.6 +17.7 52 +33 +34 очень
душно
997.0 988.0 +27.1
06 22.07 В 3 10 км ясно +38.8 +18.4 31 +43 +54 опасность
перегрева
997.0 988.1
09 22.07 ЮВ 2 10 км ясно +45.7 +16.2 18 +47 +68 опасность
перегрева
995.9 986.9
12 22.07 ЮЗ 5 10 км ясно +48.7 +7.5 9 +46 +52 опасность
перегрева
993.9 985.0
15 22.07 Ю 2 10 км 1/0
[Ac trans]
+45.5 +9.9 12 +44 +44 опасность
перегрева
993.0 984.1 +49.3
18 22.07 З 4 10 км 1/0
[Ac trans]
+38.8 +9.1 17 +37 +37 очень
жарко
994.1 985.1
21 22.07 штиль 0 10 км ясно +32.1 +13.0 31 +33 +33 жарко 993.8 984.9
00 23.07 штиль 0 10 км ясно +29.0 +16.2 46 +32 +32 душно 993.8 984.9
03 23.07 штиль 0 10 км 3/0
[Ac trans]
+28.6 +16.9 49 +32 +34 душно 995.3 986.4 +27.8
06 23.07 В 3 10 км 3/0
[Ac trans]
+36.9 +15.1 27 +38 +47 очень
душно
995.6 986.7

 

Местоположение метеостанции Сафиабад (Иран): широта 32.27 долгота 48.42 высота над уровнем моря 83 м.

В архиве по умолчанию представлена погода в Сафиабаде за последнюю неделю. Архивные данные за месяц целиком и за предыдущие месяцы, начиная с января 2011 года, Вы можете получить, выбрав интересующий диапазон дат из раскрывающегося списка и нажав кнопку "Ввод!".


*Определитесь, кто Вы:
робот инопланетянин человек

Внимание! Время в таблицах - всемирное. Для получения местного времени необходимо прибавить поправку, которая равна 3.5 ч.

Смотрите также архив погоды в соседних городах и на ближайших метеорологических станциях:

Погода в Месджеде-Солеймане (Иран) (86 км)
Погода в Ахвазе (Иран) (107 км)
Погода в Амаре (Ирак) (127 км)
Погода в Хорремабаде (Иран) (135 км)
Погода в Али Аль-Гарби (Ирак) (161 км)
Погода в Элигудерзе (Иран) (172 км)
Погода в Басре (Ирак) (199 км)
Погода в Басре аэропорт (Ирак) (204 км)
Погода в Омидийе (Иран) (205 км)
Погода в Абадане (Иран) (212 км)

Пояснения к столбцам:

Ветер - указаны скорость ветра в м/с - средняя за 10 мин, порывы в срок и между сроками (в фигурных скобках) и направление, откуда дует ветер: С - северный, СВ - северо-восточный, В - восточный, ЮВ - юго-восточный, Ю - южный, ЮЗ - юго-западный, З - западный, СЗ - северо-западный.
Видимость - горизонтальная дальность видимости в метрах или километрах. При видимости от 1 до 10 км при отсутствии осадков обычно наблюдается дымка, при ухудшении видимости до 1 км и менее - туман. В сухую погоду видимость может ухудшаться дымом, пылью или мглою.
Явления - указаны атмосферные явления, наблюдавшиеся в срок или в последний час перед сроком; фигурными скобками обозначены явления, наблюдавшиеся между сроками (за 1-3 часа до срока); квадратными скобками обозначены град или гололедные отложения с указанием их диаметра в мм.
Облачность - указаны через наклонную черту общая и нижняя облачность в баллах и высота нижней границы облаков в метрах; квадратными скобками обозначены формы облаков: Ci - перистые, Cs - перисто-слоистые, Cc - перисто-кучевые, Ac - высококучевые, As - высокослоистые, Sc - слоисто-кучевые, Ns - слоисто-дождевые, Cu - кучевые, Cb - кучево-дождевые. Подробнее классификацию облаков см. в Атласе облаков (PDF).
T - Температура воздуха - температура, измеренная на высоте 2 м над землей.
Td - Температура точки росы - температура, при понижении до которой содержащийся в воздухе водяной пар достигнет насыщения.
f - Относительная влажность воздуха - влажноcть воздуха, измеренная на высоте 2 м над землей.
Te - Эффективная температура - температура, которую ощущает одетый по сезону человек в тени. Характеристика душности погоды. При расчете учитывается влияние влажности воздуха и скорости ветра на теплоощущения человека.
Tes - Эффективная температура на солнце - температура, которую ощущает человек, с поправкой на солнечный нагрев. Характеристика знойности погоды. Зависит от высоты солнца над горизонтом, облачности и скорости ветра. Ночью, в пасмурную погоду, а также при ветре 12 м/с и более поправка равна нулю.
P - Атмосферное давление - приведенное к уровню моря атмосферное давление.
Po - Атмосферное давление - измеренное на уровне метеостанции атмосферное давление.
Tmin - Минимальная температура - минимум температуры воздуха на высоте 2 м над землей.
Tmax - Максимальная температура - максимум температуры воздуха на высоте 2 м над землей.
R - Количество осадков - Количество выпавших осадков за период времени, мм. При наведении курсора мыши на число - период времени, за который выпало указанное количество осадков.
R24 - Количество осадков - Количество выпавших осадков за 24 часа, мм.
S - Снежный покров - Высота снежного покрова, см. При наведении курсора мыши на число - состояние снежного покрова и степень покрытия местности в баллах.